Regional Weather Roundup
Issued by NWS

Home | Current Version | Previous Version | Graphics & Text | Print | Product List | Glossary On
Versions: 1 2 3 4 5 6 7 8 9 10 11 12 13 14 15 16 17 18 19 20 21 22 23 24 25 26 27 28
000
ASUS45 KCYS 171010
RWRWY

WYOMING REGIONAL WEATHER ROUNDUP
NATIONAL WEATHER SERVICE CHEYENNE WY
300 AM MST WED JAN 17 2018

NOTE:  "FAIR" INDICATES FEW OR NO CLOUDS BELOW 12,000 FEET
WITH NO SIGNIFICANT WEATHER AND/OR OBSTRUCTIONS TO VISIBILITY.

WYZ001-171100-
YELLOWSTONE NATIONAL PARK

CITY           SKY/WX    TMP DP  RH WIND       PRES   REMARKS
LK YELLOWSTONE   N/A      7   5  91 CALM      30.38R
W YELLOWSTONE  NOT AVBL

$$
WYZ002>013-054>058-071-098>099-171100-
NORTHERN WYOMING

CITY           SKY/WX    TMP DP  RH WIND       PRES   REMARKS
JACKSON        MOCLDY     4   1  88 CALM      30.42R
CODY           FAIR      17   9  70 NE6       30.21R WCI   9
GREYBULL       FAIR      -3  -8  79 CALM      30.28R
WORLAND        FAIR       1  -1  91 S5        30.26R WCI  -9
SHERIDAN       FAIR      17   4  56 S3        30.20R
BUFFALO        FAIR      34   1  24 N7        30.19R WCI  28
GILLETTE         N/A     13   6  74 MISG      30.18R
HULETT         FAIR      27   0  31 SW14      30.19R WCI  15
NEWCASTLE      FAIR      14   1  57 N5        30.22R WCI   6

$$
WYZ014>020-022>026-101>103-171100-
CENTRAL WYOMING

CITY           SKY/WX    TMP DP  RH WIND       PRES   REMARKS
BIG PINEY      FAIR       8   3  80 E3        30.30R
PINEDALE       FAIR       3   0  85 SE5       30.32R WCI  -6
DUBOIS         CLOUDY    28  14  54 W12       30.23R WCI  18
LANDER         FAIR      10   7  87 CALM      30.26R
RIVERTON       FAIR       8   4  83 W5        30.27R WCI   0
CASPER         FAIR      28   9  44 SW18G28   30.22R WCI  15
DOUGLAS        FAIR       4   1  88 W3        30.22R

$$
WYZ021-027>030-104>119-171100-
SOUTHERN WYOMING

CITY           SKY/WX    TMP DP  RH WIND       PRES   REMARKS
EVANSTON       CLOUDY    28  18  66 SW9       30.33R WCI  19
FORT BRIDGER   CLOUDY    32  21  63 W10       30.34R WCI  24
ROCK SPRINGS   FAIR      21   9  59 SW7       30.30R WCI  12
DIXON            N/A     14   2  59 SE9       30.37S WCI   2
RAWLINS        FAIR      20   5  52 S7        30.29R WCI  11
SARATOGA       FAIR      10   1  67 CALM      30.31S
LARAMIE        FAIR       7  -4  60 NE5       30.23R WCI  -2
CHEYENNE       FAIR      17   1  49 CALM      30.19R
TORRINGTON     FAIR       5   2  87 NW7       30.23R WCI  -7

$$




USA.gov is the U.S. government's official web portal to all federal, state and local government web resources and services.